Starlink 4046

operational
NORAD ID: 52842 Int'l Des: 2022-062 Owner: SPXS Country: US Constellation: starlink
LEOCIRCULAR

Über Starlink 4046

Beschreibung wird geladen...

Live-Position

3D-Globus wird geladen...

Nächste Überflüge

Höhenverlauf

Altitude vs Time

uPlot chart will show altitude changes over time

Zweizeiliger Elementsatz

1 52842U 22062N 25351.34009483 .00000082 00000-0 23230-4 0 9994
2 52842 53.2188 43.7252 0001329 88.3517 271.7627 15.08837960193350
Epoch: 17. Dez. 2025 • Age: 6 hours

Aktueller Status

Höhe 540.2 km
Geschwindigkeit 7.60 km/s
Subsatellitenpunkt 24.85°N, 116.27°E
Startdatum 17. Juni 2022
Alter 3.4 years
Typ internet

Technische Details

Klassifizierung Payload
Masse 297.00 kg
Trockenmasse 275.00 kg
Gesamtmasse 297.00 kg
Länge 0.20 m
Durchmesser 2.80 m
Spannweite 9.00 m
Form Box + pan
Hersteller SPXS
Bus-Typ Starlink
Phasenstatus In Orbit
Besitzer/Staat SPXS/US

Große Konstellationen

Loading constellations...